Find Hylas 4

NORAD ID: 43272 Int'l Des: 2018-033 Owner: AVANTI Country: UK operational
HEOCIRCULARGSOGEO

Aktuelle Ansicht

3D-Globus wird geladen...

Über Hylas 4

Beschreibung wird geladen...

Nächste Überflüge

Passes for default location (London). Set your location on the main map for personalized predictions.

Höhenverlauf

Loading altitude history...

Zweizeiliger Elementsatz

1 43272U 18033B 26149.85488067 -.00000221 00000-0 00000+0 0 9996
2 43272 0.0463 103.4322 0001448 334.9539 83.2769 1.00274292 29880
Epoch: 29. Mai 2026 • Age: 18 hours

Aktueller Status

Höhe 35779.4 km
Geschwindigkeit 3.08 km/s
Subsatellitenpunkt 0.02°N, 33.47°W
Startdatum 5. Apr. 2018
Alter 8.1 years
Typ other

Technische Details

Klassifizierung Payload
Masse 4050.00 kg
Trockenmasse 2000.00 kg
Gesamtmasse 4050.00 kg
Länge 3.00 m
Durchmesser 3.10 m
Spannweite 22.00 m
Form Box + 2 pan
Hersteller OATKD
Bus-Typ Geostar-3
Phasenstatus In Orbit
Besitzer/Staat AVANTI/UK

Most Searched